User: anonymous   Login
Location: Marseilles
(40.7010°N, 83.3930°W)
Time: 15:59:13
(UTC-04:00)
Language:

Cosmos 1459 Rocket - Orbit

View from above orbital plane
View from above orbital plane
View from above satellite
View from above satellite

Ground track
Ground track

The orbit data is extracted from the following two-line orbital elements,

1 14059U 83042B   14302.81843164  .00000086  00000-0  69189-4 0  4188
2 14059 082.9743 055.4297 0043856 087.4443 069.6383 13.78470773583303
Epoch (UTC): 29 October 2014 19:38:32
Eccentricity: 0.0043856
inclination: 82.9743°
perigee height: 937 km
apogee height: 1001 km
right ascension of ascending node: 55.4297°
argument of perigee: 87.4443°
revolutions per day: 13.78470773
mean anomaly at epoch: 69.6383°
orbit number at epoch: 58330

The dashed part of the orbit path shows where the satellite is in the earth's shadow,  

DLR